(167737) = 2004 XZ23

Discovered at Socorro on 2004-12-09 by LINEAR.

Orbit

Orbit type: Main Belt

Note: WebGL enabled browser required.

epoch2024-03-31.0
epoch JD2460400.5
perihelion date2022-05-31.95648
perihelion JD2459731.45648
argument of perihelion (°)72.25796
ascending node (°)35.61713
inclination (°)6.26717
eccentricity0.1074352
perihelion distance (AU)2.0359470
Tisserand w.r.t. Jupiter3.6
ΔV w.r.t. Earth (km/sec)9.0
semimajor axis (AU)2.2810076
mean anomaly (°)191.41154
mean daily motion (°/day)0.28609730
aphelion distance (AU)2.526
period (years)3.45
P-vector [x]-0.30362811
P-vector [y]0.82758990
P-vector [z]0.47212809
Q-vector [x]-0.95066731
Q-vector [y]-0.29620546
Q-vector [z]-0.09216286
absolute magnitude16.66
phase slope0.15
uncertainty0
referenceMPEC 2024-C181
observations used789
oppositions13
arc length (days)11378
first opposition used1992
last opposition used2023
residual rms (arc-secs)0.67
perturbers coarse indicatorM-v
perturbers precise indicator003Ek
first observation date used1992-04-24.0
last observation date used2023-06-19.0
computer nameMPCLINUX
JD of orbit computation2456966.841715
perihelion JD uncertainty (days)1.5928E-04
argument of perihelion uncertainty (°)6.7891E-05
ascending node uncertainty (°)4.8073E-05
inclination uncertainty (°)7.8212E-06
eccentricity uncertainty 4.6073E-08
perihelion distance uncertainty (AU)1.1071E-07
Minimum Orbit Intersection Distances (in AU)
for orbit epoch: 2460400.5, reference: E2024-FB1
Mercury1.71612
Venus1.32008
Earth1.06339
Mars0.42616
Jupiter2.57869
Saturn6.99846
Uranus16.277
Neptune27.5487

Observations

831 total observations over interval: 1992 04 24.26174 – 2023 06 19.308845
These data are available for download (format description).

Date (UT) J2000 RA J2000 Dec Magn Location Ref
1992 04 24.26174 14 13 41.94 -13 15 49.0 20.0 V 691 – Steward Observatory, Kitt Peak-Spacewatch MPS 124115
1992 04 24.28233 14 13 40.52 -13 15 46.7   691 – Steward Observatory, Kitt Peak-Spacewatch MPS 124115
1992 04 24.30306 14 13 39.11 -13 15 43.9   691 – Steward Observatory, Kitt Peak-Spacewatch MPS 124115
2002 02 08.38487 11 32 13.23 +13 34 03.0 19.0   704 – Lincoln Laboratory ETS, New Mexico MPS 124115
2002 02 08.39921 11 32 12.66 +13 34 07.2 19.5   704 – Lincoln Laboratory ETS, New Mexico MPS 124115
2002 02 08.41350 11 32 12.07 +13 34 12.1 19.0   704 – Lincoln Laboratory ETS, New Mexico MPS 124115
2002 02 08.42784 11 32 11.57 +13 34 15.6 19.0   704 – Lincoln Laboratory ETS, New Mexico MPS 124115
2002 02 08.44215 11 32 10.97 +13 34 19.8 19.0   704 – Lincoln Laboratory ETS, New Mexico MPS 124115
2002 02 22.46982 11 20 48.87 +14 43 31.1 18.9   644 – Palomar Mountain/NEAT MPS 124115
2002 02 22.48019 11 20 48.24 +14 43 34.0 18.9   644 – Palomar Mountain/NEAT MPS 124115
2002 02 22.49054 11 20 47.61 +14 43 36.9 19.0   644 – Palomar Mountain/NEAT MPS 124115
2002 03 05.54346 11 09 19.43 +15 31 12.1 19.7   608 – Haleakala-AMOS MPS 124115
2002 03 05.55462 11 09 18.68 +15 31 14.6 19.7   608 – Haleakala-AMOS MPS 124115
2002 03 05.56533 11 09 17.94 +15 31 16.5 19.7   608 – Haleakala-AMOS MPS 124115
2002 03 11.36054 11 03 09.25 +15 49 08.8 18.7   644 – Palomar Mountain/NEAT MPS 124115
2002 03 11.37105 11 03 08.58 +15 49 10.7 18.9   644 – Palomar Mountain/NEAT MPS 124115
2002 03 11.38145 11 03 07.89 +15 49 12.0 18.8   644 – Palomar Mountain/NEAT MPS 124115
2002 04 02.26363 10 44 59.16 +15 52 58.8 19.5   644 – Palomar Mountain/NEAT MPS 124115
2002 04 02.28448 10 44 58.43 +15 52 56.0 19.3   644 – Palomar Mountain/NEAT MPS 124115
2002 04 02.30540 10 44 57.71 +15 52 53.1 19.7   644 – Palomar Mountain/NEAT MPS 124115
2004 12 02.28591 05 00 01.95 +30 07 05.4 18.6   704 – Lincoln Laboratory ETS, New Mexico MPS 122748
2004 12 02.29812 05 00 00.97 +30 07 06.7 18.5   704 – Lincoln Laboratory ETS, New Mexico MPS 122748
2004 12 02.31067 05 00 00.12 +30 07 07.7 18.9   704 – Lincoln Laboratory ETS, New Mexico MPS 122748
2004 12 02.32288 04 59 59.13 +30 07 11.1 18.9   704 – Lincoln Laboratory ETS, New Mexico MPS 122748
2004 12 02.35176 04 59 56.97 +30 07 15.0 18.1 R 703 – Catalina Sky Survey MPS 122748
2004 12 02.35999 04 59 56.32 +30 07 16.3 18.2 R 703 – Catalina Sky Survey MPS 122748
2004 12 02.36821 04 59 55.68 +30 07 16.9 18.1 R 703 – Catalina Sky Survey MPS 122748
2004 12 02.37642 04 59 55.03 +30 07 18.0 17.8 R 703 – Catalina Sky Survey MPS 122748
2004 12 09.27588 04 51 23.23 +30 19 48.0 18.4   704 – Lincoln Laboratory ETS, New Mexico MPS 121830
2004 12 09.28822 04 51 22.29 +30 19 46.7 19.0   704 – Lincoln Laboratory ETS, New Mexico MPS 121830
2004 12 09.30103 04 51 21.28 +30 19 48.6 18.4   704 – Lincoln Laboratory ETS, New Mexico MPS 121830
2004 12 09.31338 04 51 20.32 +30 19 49.8 18.8   704 – Lincoln Laboratory ETS, New Mexico MPS 121830
2004 12 11.26575 04 48 55.34 +30 21 59.0 18.4   704 – Lincoln Laboratory ETS, New Mexico MPS 121830
2004 12 11.27927 04 48 54.25 +30 21 59.3 18.9   704 – Lincoln Laboratory ETS, New Mexico MPS 121830
2004 12 11.29286 04 48 53.21 +30 22 00.8 19.1   704 – Lincoln Laboratory ETS, New Mexico MPS 121830
2004 12 11.30641 04 48 52.17 +30 22 01.7 18.6   704 – Lincoln Laboratory ETS, New Mexico MPS 121830
2004 12 11.31952 04 48 51.14 +30 22 01.4 18.5   704 – Lincoln Laboratory ETS, New Mexico MPS 121830
2004 12 12.28216 04 47 40.35 +30 22 51.3 18.7   704 – Lincoln Laboratory ETS, New Mexico MPS 121830
2004 12 12.29760 04 47 39.14 +30 22 53.1 19.0   704 – Lincoln Laboratory ETS, New Mexico MPS 121830
2004 12 12.31297 04 47 37.98 +30 22 53.7 18.8   704 – Lincoln Laboratory ETS, New Mexico MPS 121830
2004 12 12.32846 04 47 36.77 +30 22 52.5 18.6   704 – Lincoln Laboratory ETS, New Mexico MPS 121830
2004 12 13.27522 04 46 27.59 +30 23 36.0 18.5 C 704 – Lincoln Laboratory ETS, New Mexico MPS 294282
2004 12 13.29556 04 46 26.07 +30 23 36.5 18.1 C 704 – Lincoln Laboratory ETS, New Mexico MPS 294282
2004 12 13.31180 04 46 24.87 +30 23 36.8 18.3 C 704 – Lincoln Laboratory ETS, New Mexico MPS 294282
2004 12 13.32803 04 46 23.59 +30 23 38.8 18.3 C 704 – Lincoln Laboratory ETS, New Mexico MPS 294282
2004 12 13.34413 04 46 22.39 +30 23 38.1 18.4 C 704 – Lincoln Laboratory ETS, New Mexico MPS 294282
2004 12 15.18959 04 44 10.02 +30 24 37.0 19.4   704 – Lincoln Laboratory ETS, New Mexico MPS 121830
2004 12 15.20369 04 44 08.93 +30 24 36.7 19.6   704 – Lincoln Laboratory ETS, New Mexico MPS 121830
2004 12 15.21674 04 44 07.94 +30 24 36.9 19.7   704 – Lincoln Laboratory ETS, New Mexico MPS 121830
2004 12 15.22980 04 44 06.87 +30 24 39.3 19.8   704 – Lincoln Laboratory ETS, New Mexico MPS 121830
2004 12 15.24343 04 44 05.93 +30 24 36.4 19.7   704 – Lincoln Laboratory ETS, New Mexico MPS 121830
2004 12 17.17533 04 41 50.64 +30 25 04.7 18.6   704 – Lincoln Laboratory ETS, New Mexico MPS 122748
2004 12 17.18891 04 41 49.70 +30 25 05.1 19.3   704 – Lincoln Laboratory ETS, New Mexico MPS 122748
2004 12 17.20340 04 41 48.61 +30 25 04.4 19.3   704 – Lincoln Laboratory ETS, New Mexico MPS 122748
2004 12 17.23018 04 41 46.72 +30 25 04.4 19.0   704 – Lincoln Laboratory ETS, New Mexico MPS 122748
2005 01 07.20655 04 24 19.93 +30 07 54.8 19.5   704 – Lincoln Laboratory ETS, New Mexico MPS 123588
2005 01 07.21955 04 24 19.56 +30 07 53.1 19.6   704 – Lincoln Laboratory ETS, New Mexico MPS 123588
2005 01 07.23273 04 24 19.08 +30 07 53.0 19.6   704 – Lincoln Laboratory ETS, New Mexico MPS 123588
2005 01 07.24575 04 24 18.74 +30 07 49.7 19.7   704 – Lincoln Laboratory ETS, New Mexico MPS 123588
2005 01 12.22007 04 22 41.45 +30 01 28.6 19.5   704 – Lincoln Laboratory ETS, New Mexico MPS 124115
2005 01 12.23468 04 22 41.29 +30 01 27.6 19.9   704 – Lincoln Laboratory ETS, New Mexico MPS 124115
2005 01 12.26376 04 22 40.90 +30 01 24.4 20.4   704 – Lincoln Laboratory ETS, New Mexico MPS 124115
2005 01 12.27832 04 22 40.50 +30 01 23.3 19.6   704 – Lincoln Laboratory ETS, New Mexico MPS 124115
2007 09 08.41678 00 34 06.70 -03 32 25.0 19.0 R 699 – Lowell Observatory-LONEOS MPS 215129
2007 09 08.43866 00 34 05.50 -03 32 29.5   699 – Lowell Observatory-LONEOS MPS 215129
2007 09 08.46056 00 34 04.49 -03 32 35.2   699 – Lowell Observatory-LONEOS MPS 215129
2007 09 08.48248 00 34 03.51 -03 32 42.1   699 – Lowell Observatory-LONEOS MPS 215129
2007 10 04.28726 00 08 56.72 -05 14 59.4 18.8 V 703 – Catalina Sky Survey MPS 218092
2007 10 04.29559 00 08 56.14 -05 15 00.7 19.8 V 703 – Catalina Sky Survey MPS 218092
2007 10 04.30395 00 08 55.60 -05 15 01.7 19.1 V 703 – Catalina Sky Survey MPS 218092
2007 10 04.31225 00 08 55.10 -05 15 03.8 19.3 V 703 – Catalina Sky Survey MPS 218092
2007 10 07.20595 00 06 00.59 -05 23 28.2 19.4   704 – Lincoln Laboratory ETS, New Mexico MPS 218648
2007 10 07.21691 00 05 59.88 -05 23 29.5 19.9   704 – Lincoln Laboratory ETS, New Mexico MPS 218648
2007 10 07.22789 00 05 59.17 -05 23 32.8 19.9   704 – Lincoln Laboratory ETS, New Mexico MPS 218648
2007 10 07.24989 00 05 57.94 -05 23 35.2 19.5   704 – Lincoln Laboratory ETS, New Mexico MPS 218648
2007 10 09.26985 00 03 59.40 -05 28 45.7 19.6 V G96 – Mt. Lemmon Survey MPS 218648
2007 10 09.27039 00 03 59.36 -05 28 46.2 19.5 V G96 – Mt. Lemmon Survey MPS 218648
2007 10 09.27610 00 03 59.00 -05 28 46.3 19.5 V G96 – Mt. Lemmon Survey MPS 218648
2007 10 09.27664 00 03 59.00 -05 28 47.2 19.5 V G96 – Mt. Lemmon Survey MPS 218648
2007 10 09.28237 00 03 58.64 -05 28 47.2 19.5 V G96 – Mt. Lemmon Survey MPS 218648
2007 10 09.28293 00 03 58.60 -05 28 48.1 19.6 V G96 – Mt. Lemmon Survey MPS 218648
2007 10 09.28867 00 03 58.24 -05 28 48.5 19.4 V G96 – Mt. Lemmon Survey MPS 218648
2007 10 09.28921 00 03 58.24 -05 28 49.0 19.5 V G96 – Mt. Lemmon Survey MPS 218648
2007 10 13.20568 00 00 19.31 -05 36 57.4 20.1   704 – Lincoln Laboratory ETS, New Mexico MPS 220510
2007 10 13.21684 00 00 18.63 -05 37 00.1 20.3   704 – Lincoln Laboratory ETS, New Mexico MPS 220510
2007 10 13.22799 00 00 17.99 -05 36 59.0 20.5   704 – Lincoln Laboratory ETS, New Mexico MPS 220510
